Ravenna, OH

10:43 PM EST on November 22, 2017 (GMT -0500)
Ravenna

Weather History for KPOV - July, 2013

Change the Weather History Date:

Tuesday, July 23, 2013

  Actual Average (KCAK) Record (KCAK)
Temperature  
Mean Temperature 70 °F -  
Max Temperature 78 °F 82 °F 101 °F (1933)
Min Temperature 63 °F 61 °F 45 °F (1904)
Cooling Degree Days 6    
Growing Degree Days 20 (Base 50)    
Moisture  
Dew Point 67 °F    
Average Humidity 92    
Maximum Humidity 100    
Minimum Humidity 66    
Precipitation  
Precipitation 1.08 in - - ()
Sea Level Pressure  
Sea Level Pressure 29.77 in    
Wind  
Wind Speed 3 mph (SW)    
Max Wind Speed 12 mph    
Max Gust Speed 26 mph    
Visibility 8 miles    
Events Fog , Rain    
Averages and records for this station are not official NWS values.
T = Trace of Precipitation, MM = Missing Value Source: NWS Daily Summary

Daily Weather History Graph

Daily Weather History Graph

Search for Another Location

Airport or City:

Trip Planner

Search our weather history database for the weather conditions in past years. The results will help you decide how hot, cold, wet, or windy it might be!

Date:

Astronomy

Jul. 23, 2013 Rise Set
Actual Time 6:12 AM EDT 8:50 PM EDT
Civil Twilight 5:40 AM EDT 9:22 PM EDT
Nautical Twilight 5:00 AM EDT 10:01 PM EDT
Astronomical Twilight 4:15 AM EDT 10:46 PM EDT
Moon 9:15 PM EDT 7:20 AM EDT
Length of Visible Light 15h 41m
Length of Day
14h 38m
Full, 99% of the Moon is Illuminated
Jul 23
Full
Jul 29
Last Quarter
Aug 6
New
Aug 14
First Quarter
Aug 20
Full

Hourly Weather History & Observations

Time (EDT) Temp. Dew Point Humidity Pressure Visibility Wind Dir Wind Speed Gust Speed Precip Events Conditions
12:13 AM 65.7 °F 65.8 °F 100% 29.82 in 10.0 mi Calm Calm - N/A   Overcast
12:33 AM 65.8 °F 66.0 °F 100% 29.81 in 7.0 mi Calm Calm - N/A   Overcast
12:53 AM 66.2 °F 66.2 °F 100% 29.81 in 7.0 mi Calm Calm - N/A   Overcast
1:13 AM 65.7 °F 65.8 °F 100% 29.81 in 7.0 mi Calm Calm - N/A   Overcast
1:33 AM 65.7 °F 65.8 °F 100% 29.81 in 7.0 mi Calm Calm - N/A   Overcast
1:53 AM 65.7 °F 65.8 °F 100% 29.80 in 7.0 mi Calm Calm - N/A   Overcast
2:13 AM 65.3 °F 65.3 °F 100% 29.80 in 7.0 mi West 4.6 mph - N/A   Overcast
2:33 AM 64.8 °F 64.9 °F 100% 29.80 in 10.0 mi Calm Calm - N/A   Scattered Clouds
2:54 AM 64.4 °F 64.4 °F 100% 29.80 in 7.0 mi West 3.5 mph - N/A   Clear
3:13 AM 64.4 °F 64.4 °F 100% 29.79 in 5.0 mi Calm Calm - N/A   Scattered Clouds
3:33 AM 64.0 °F 64.0 °F 100% 29.80 in 5.0 mi West 3.5 mph - N/A   Clear
3:53 AM 64.2 °F 64.4 °F 100% 29.80 in 5.0 mi West 4.6 mph - N/A   Clear
4:13 AM 64.4 °F 64.4 °F 100% 29.80 in 5.0 mi West 3.5 mph - N/A   Clear
4:33 AM 63.7 °F 63.9 °F 100% 29.79 in 5.0 mi Calm Calm - N/A   Clear
4:53 AM 63.9 °F 64.0 °F 100% 29.78 in 3.0 mi Calm Calm - N/A   Clear
5:13 AM 63.7 °F 63.7 °F 100% 29.79 in 4.0 mi Calm Calm - N/A   Clear
5:33 AM - - N/A% 29.79 in 1.8 mi Calm Calm - N/A   Mist
5:53 AM 63.0 °F 63.1 °F 100% 29.79 in 1.0 mi Calm Calm - N/A   Mostly Cloudy
6:13 AM 63.0 °F 63.3 °F 100% 29.79 in 1.5 mi Calm Calm - N/A   Overcast
6:33 AM 63.5 °F 63.5 °F 100% 29.80 in 0.2 mi West 5.8 mph - N/A Fog Fog
6:53 AM 63.7 °F 63.9 °F 100% 29.80 in 1.5 mi WSW 4.6 mph - N/A   Mostly Cloudy
7:13 AM 64.4 °F 64.6 °F 100% 29.80 in 3.0 mi WSW 4.6 mph - N/A   Clear
7:33 AM - - N/A% 29.80 in 3.0 mi West 5.8 mph - N/A   Clear
7:53 AM 65.5 °F 65.7 °F 100% 29.81 in 5.0 mi West 5.8 mph - N/A   Clear
8:13 AM 66.6 °F 66.7 °F 100% 29.81 in 7.0 mi WSW 6.9 mph - N/A   Clear
8:33 AM 67.8 °F 67.8 °F 100% 29.80 in 10.0 mi WSW 4.6 mph - N/A   Clear
8:53 AM 68.5 °F 68.5 °F 100% 29.80 in 10.0 mi SW 3.5 mph - N/A   Clear
9:13 AM 69.6 °F 68.7 °F 97% 29.80 in 10.0 mi Calm Calm - N/A   Clear
9:33 AM 70.7 °F 68.5 °F 93% 29.80 in 10.0 mi Calm Calm - N/A   Clear
9:54 AM 71.6 °F 67.8 °F 88% 29.79 in 10.0 mi SSW 3.5 mph - N/A   Clear
10:13 AM 72.5 °F 67.5 °F 84% 29.78 in 10.0 mi Calm Calm - N/A   Clear
10:33 AM 73.4 °F 66.9 °F 80% 29.79 in 10.0 mi SSW 4.6 mph - N/A   Scattered Clouds
10:53 AM 74.1 °F 66.0 °F 76% 29.79 in 10.0 mi WSW 4.6 mph - N/A   Scattered Clouds
11:13 AM 74.3 °F 66.2 °F 76% 29.79 in 7.0 mi SSW 4.6 mph - N/A   Clear
11:33 AM 75.6 °F 66.7 °F 74% 29.79 in 10.0 mi SW 5.8 mph - N/A   Scattered Clouds
11:53 AM 76.6 °F 65.8 °F 69% 29.79 in 7.0 mi WSW 8.1 mph - N/A   Scattered Clouds
12:13 PM 76.3 °F 65.3 °F 69% 29.79 in 10.0 mi SW 8.1 mph - N/A   Mostly Cloudy
12:33 PM 77.2 °F 65.5 °F 67% 29.79 in 10.0 mi West 6.9 mph - N/A   Scattered Clouds
12:53 PM 78.1 °F 65.8 °F 66% 29.79 in 10.0 mi WSW 6.9 mph - N/A   Scattered Clouds
1:13 PM 77.4 °F 66.6 °F 69% 29.78 in 10.0 mi WSW 4.6 mph - N/A   Mostly Cloudy
1:33 PM 77.9 °F 66.6 °F 68% 29.78 in 10.0 mi SSW 5.8 mph - N/A   Scattered Clouds
1:53 PM 77.2 °F 67.3 °F 71% 29.77 in 10.0 mi South 3.5 mph - N/A Rain Light Rain
2:13 PM 77.0 °F 70.0 °F 79% 29.76 in 10.0 mi SSW 3.5 mph - 0.01 in   Mostly Cloudy
2:33 PM 76.8 °F 69.6 °F 78% 29.75 in 10.0 mi SSW 6.9 mph - 0.01 in   Mostly Cloudy
2:53 PM 77.2 °F 72.3 °F 85% 29.74 in 10.0 mi SW 3.5 mph - 0.01 in   Scattered Clouds
3:13 PM 76.6 °F 69.3 °F 78% 29.73 in 4.0 mi SSW 4.6 mph - 0.04 in Rain Heavy Rain
3:33 PM 74.1 °F 72.1 °F 94% 29.73 in 5.0 mi Calm Calm - 0.08 in Rain Light Rain
3:54 PM 66.2 °F 66.6 °F 100% 29.74 in 0.8 mi SW 5.8 mph 26.5 mph 0.67 in Rain Heavy Rain
4:13 PM 66.4 °F 66.6 °F 100% 29.74 in 10.0 mi South 4.6 mph - N/A   Mostly Cloudy
4:33 PM 69.8 °F 70.0 °F 100% 29.74 in 10.0 mi SSE 5.8 mph - N/A   Scattered Clouds
4:53 PM 70.9 °F 70.9 °F 100% 29.75 in 10.0 mi South 4.6 mph - N/A   Mostly Cloudy
5:13 PM 70.9 °F 69.6 °F 96% 29.73 in 10.0 mi SSE 6.9 mph - N/A   Mostly Cloudy
5:33 PM 72.5 °F 68.0 °F 86% 29.73 in 10.0 mi SW 3.5 mph - N/A   Scattered Clouds
5:53 PM 70.9 °F 68.5 °F 92% 29.73 in 10.0 mi SSE 3.5 mph - N/A   Mostly Cloudy
6:13 PM 73.4 °F 68.5 °F 85% 29.70 in 10.0 mi Calm Calm - N/A   Scattered Clouds
6:33 PM 74.1 °F 68.0 °F 81% 29.69 in 10.0 mi Calm Calm - N/A   Clear
6:53 PM 75.0 °F 68.7 °F 81% 29.69 in 10.0 mi South 3.5 mph - N/A   Clear
7:13 PM 75.0 °F 69.1 °F 82% 29.71 in 10.0 mi Calm Calm - N/A   Clear
7:34 PM 72.5 °F 70.5 °F 93% 29.72 in 10.0 mi South 3.5 mph - N/A   Scattered Clouds
7:53 PM 71.1 °F 70.7 °F 99% 29.71 in 10.0 mi SSE 3.5 mph - N/A   Overcast
8:13 PM - - N/A% 29.73 in 1.5 mi SSW 5.8 mph - 0.19 in Rain Heavy Rain
8:33 PM 69.4 °F 68.9 °F 98% 29.73 in 10.0 mi West 6.9 mph - 0.39 in Rain Light Rain
8:53 PM 69.4 °F 69.6 °F 100% 29.73 in 10.0 mi SSW 5.8 mph - 0.39 in   Mostly Cloudy
9:13 PM 68.4 °F 68.7 °F 100% 29.74 in 7.0 mi Calm Calm - N/A   Scattered Clouds
9:33 PM 69.3 °F 69.4 °F 100% 29.75 in 10.0 mi NW 3.5 mph - 0.01 in   Mostly Cloudy
9:53 PM 70.2 °F 70.3 °F 100% 29.78 in 10.0 mi WNW 5.8 mph - 0.01 in   Overcast
10:13 PM 69.1 °F 68.9 °F 99% 29.78 in 10.0 mi North 11.5 mph - N/A   Overcast
10:34 PM 68.0 °F 67.8 °F 99% 29.78 in 10.0 mi North 6.9 mph - N/A   Mostly Cloudy
10:53 PM 67.3 °F 66.9 °F 99% 29.80 in 10.0 mi North 8.1 mph - N/A   Scattered Clouds
11:13 PM 67.3 °F 67.3 °F 100% 29.80 in 10.0 mi North 5.8 mph - N/A   Mostly Cloudy
11:33 PM 67.1 °F 65.3 °F 94% 29.81 in 10.0 mi North 6.9 mph - N/A   Overcast
11:53 PM 66.6 °F 63.7 °F 90% 29.82 in 10.0 mi North 11.5 mph - N/A   Overcast